ASL507 KORD-LYBE

Flight info

Callsign ASL507
Flight time N/A
Altitude 37000
Route EBAKE DCT WISMO DCT POSTS DCT PADDE DCT SVM DCT BETUL DCT ROSVO DCT ANCER N795B JANJO/M079F390 NATT KESIX/N0457F390 DCT OSBOX DCT AMLAD DCT ERKIT N110 DOLAS DCT NAVPI DCT OTMEC DCT TIVUN DCT ESAMA DCT OSBIT DCT TENLO DCT LAMSI DCT SITNI DCT SASAL DCT BABIT DCT RIGMU
Aircraft A332/H-SDE3GHIJ2J3J5M1RVWXY/LB2D1

Departure

Time 2026-05-07 00:22
Airport Chicago O'Hare International Airport (KORD)

Arrival

Time N/A
Airport Belgrade Nikola Tesla Airport (LYBE)
Time Latitude Longitude Altitude Speed Heading
2026-05-06 23:20 41.97358 -87.88899 673 ft 0 kts
2026-05-07 00:11 41.97357 -87.88899 673 ft 1 kts
2026-05-07 00:11 41.97333 -87.88898 672 ft 4 kts
2026-05-07 00:11 41.97306 -87.88901 671 ft 4 kts 21°
2026-05-07 00:11 41.97286 -87.88916 670 ft 4 kts 41°
2026-05-07 00:12 41.97271 -87.88943 673 ft 4 kts 74°
2026-05-07 00:12 41.97268 -87.88975 673 ft 3 kts 90°
2026-05-07 00:12 41.97268 -87.89008 673 ft 2 kts 90°
2026-05-07 00:12 41.97268 -87.89010 673 ft 0 kts 90°
2026-05-07 00:15 41.97268 -87.89008 673 ft 1 kts 89°
2026-05-07 00:16 41.97267 -87.88989 673 ft 2 kts 97°
2026-05-07 00:16 41.97260 -87.88967 669 ft 3 kts 118°
2026-05-07 00:16 41.97250 -87.88953 671 ft 3 kts 135°
2026-05-07 00:16 41.97231 -87.88933 673 ft 4 kts 142°
2026-05-07 00:17 41.97212 -87.88906 673 ft 4 kts 127°
2026-05-07 00:17 41.97204 -87.88879 670 ft 3 kts 108°
2026-05-07 00:17 41.97195 -87.88764 673 ft 13 kts 92°
2026-05-07 00:17 41.97196 -87.88692 673 ft 10 kts 88°
2026-05-07 00:18 41.97197 -87.88601 673 ft 10 kts 89°
2026-05-07 00:18 41.97196 -87.88505 673 ft 10 kts 91°
2026-05-07 00:18 41.97152 -87.88447 673 ft 9 kts 165°
2026-05-07 00:18 41.97094 -87.88441 673 ft 8 kts 176°
2026-05-07 00:19 41.97058 -87.88420 673 ft 4 kts 154°
2026-05-07 00:19 41.97026 -87.88408 672 ft 5 kts 168°
2026-05-07 00:19 41.97015 -87.88406 672 ft 0 kts 174°
2026-05-07 00:19 41.97014 -87.88406 672 ft 1 kts 174°
2026-05-07 00:20 41.97000 -87.88405 672 ft 5 kts 177°
2026-05-07 00:20 41.96950 -87.88411 672 ft 9 kts 197°
2026-05-07 00:20 41.96916 -87.88450 672 ft 4 kts 246°
2026-05-07 00:20 41.96910 -87.88493 672 ft 6 kts 264°
2026-05-07 00:21 41.96908 -87.88538 671 ft 0 kts 269°
2026-05-07 00:21 41.96908 -87.88584 671 ft 21 kts 269°
2026-05-07 00:21 41.96907 -87.89061 672 ft 80 kts 269°
2026-05-07 00:21 41.96909 -87.90049 674 ft 131 kts 268°
2026-05-07 00:22 41.96892 -87.91424 990 ft 153 kts 272°
2026-05-07 00:22 41.96918 -87.92879 1716 ft 158 kts 274°
2026-05-07 00:22 41.96952 -87.94373 2403 ft 162 kts 274°
2026-05-07 00:22 41.96974 -87.95897 3028 ft 165 kts 273°
2026-05-07 00:23 41.96978 -87.97529 3402 ft 185 kts 272°
2026-05-07 00:23 41.96983 -87.99357 3708 ft 207 kts 272°
2026-05-07 00:23 41.96993 -88.01381 4041 ft 224 kts 272°
2026-05-07 00:23 41.97123 -88.03514 4474 ft 235 kts 283°
2026-05-07 00:24 41.97758 -88.05567 5058 ft 243 kts 304°
2026-05-07 00:24 41.99023 -88.07078 5803 ft 249 kts 331°
2026-05-07 00:24 42.00740 -88.07518 6551 ft 262 kts
2026-05-07 00:24 42.02453 -88.06564 7227 ft 278 kts 36°
2026-05-07 00:25 42.03637 -88.04457 7973 ft 289 kts 58°
2026-05-07 00:25 42.04455 -88.01958 8711 ft 296 kts 67°
2026-05-07 00:25 42.05090 -87.99296 9438 ft 301 kts 71°
2026-05-07 00:25 42.05662 -87.96562 10120 ft 307 kts 72°
2026-05-07 00:26 42.06257 -87.93729 10472 ft 324 kts 71°
2026-05-07 00:26 42.06923 -87.90745 10729 ft 342 kts 70°
2026-05-07 00:26 42.07666 -87.87612 10988 ft 360 kts 69°
2026-05-07 00:26 42.08453 -87.84429 11379 ft 371 kts 69°
2026-05-07 00:27 42.09311 -87.81032 11948 ft 379 kts 69°
2026-05-07 00:27 42.10172 -87.77650 12518 ft 385 kts 69°
2026-05-07 00:27 42.11038 -87.74248 13084 ft 392 kts 69°
2026-05-07 00:27 42.11939 -87.70705 13688 ft 398 kts 69°
2026-05-07 00:28 42.12828 -87.67193 14151 ft 406 kts 69°
2026-05-07 00:28 42.13742 -87.63566 14649 ft 412 kts 69°
2026-05-07 00:28 42.14665 -87.59891 15180 ft 417 kts 70°
2026-05-07 00:28 42.15598 -87.56165 15690 ft 423 kts 70°
2026-05-07 00:29 42.16544 -87.52384 16198 ft 428 kts 70°
2026-05-07 00:29 42.17499 -87.48557 16768 ft 433 kts 70°
2026-05-07 00:30 42.20412 -87.36852 18346 ft 447 kts 70°
2026-05-07 00:30 42.21403 -87.32857 18751 ft 452 kts 70°
2026-05-07 00:30 42.22411 -87.28793 19025 ft 461 kts 71°
2026-05-07 00:30 42.23433 -87.24663 19416 ft 467 kts 71°
2026-05-07 00:31 42.24462 -87.20490 19847 ft 471 kts 71°
2026-05-07 00:31 42.25501 -87.16274 20254 ft 476 kts 71°
2026-05-07 00:31 42.26549 -87.12012 20654 ft 481 kts 71°
2026-05-07 00:31 42.27484 -87.07671 21032 ft 486 kts 79°
2026-05-07 00:32 42.27985 -87.03198 21429 ft 490 kts 85°
2026-05-07 00:32 42.28316 -86.98597 21811 ft 494 kts 88°
2026-05-07 00:32 42.28549 -86.93897 22182 ft 498 kts 89°
2026-05-07 00:32 42.28725 -86.89256 22582 ft 502 kts 90°
2026-05-07 00:33 42.28886 -86.84529 22955 ft 506 kts 90°
2026-05-07 00:33 42.29048 -86.79691 23322 ft 511 kts 90°
2026-05-07 00:33 42.29214 -86.74937 23657 ft 516 kts 90°
2026-05-07 00:33 42.29390 -86.70090 23985 ft 519 kts 90°
2026-05-07 00:34 42.29572 -86.65203 24349 ft 521 kts 89°
2026-05-07 00:34 42.29757 -86.60303 24693 ft 523 kts 89°
2026-05-07 00:34 42.29943 -86.55384 25025 ft 525 kts 89°
2026-05-07 00:34 42.30127 -86.50452 25461 ft 526 kts 89°
2026-05-07 00:35 42.30310 -86.45506 25798 ft 528 kts 89°
2026-05-07 00:35 42.30490 -86.40543 26100 ft 531 kts 89°
2026-05-07 00:35 42.30669 -86.35536 26428 ft 534 kts 89°
2026-05-07 00:35 42.30847 -86.30498 26759 ft 537 kts 89°
2026-05-07 00:36 42.31023 -86.25454 27090 ft 539 kts 89°
2026-05-07 00:36 42.31195 -86.20476 27417 ft 542 kts 89°
2026-05-07 00:36 42.31369 -86.15361 27758 ft 543 kts 89°
2026-05-07 00:36 42.31538 -86.10256 28142 ft 544 kts 89°
2026-05-07 00:37 42.31612 -86.05172 28440 ft 547 kts 92°
2026-05-07 00:37 42.31584 -86.00015 28733 ft 549 kts 93°
2026-05-07 00:37 42.31505 -85.94839 29036 ft 552 kts 94°
2026-05-07 00:37 42.31410 -85.89646 29336 ft 555 kts 94°
2026-05-07 00:38 42.31315 -85.84412 29646 ft 557 kts 93°
2026-05-07 00:38 42.31228 -85.79169 29928 ft 560 kts 93°
2026-05-07 00:38 42.31148 -85.73955 30183 ft 563 kts 93°
2026-05-07 00:38 42.31072 -85.68636 30438 ft 565 kts 93°
2026-05-07 00:39 42.30997 -85.63313 30682 ft 568 kts 93°
2026-05-07 00:39 42.30922 -85.57958 30929 ft 570 kts 93°
2026-05-07 00:39 42.30844 -85.52597 31172 ft 572 kts 94°
2026-05-07 00:39 42.30763 -85.47210 31414 ft 575 kts 94°
2026-05-07 00:40 42.30679 -85.41800 31666 ft 576 kts 94°
2026-05-07 00:40 42.30592 -85.36417 31890 ft 578 kts 94°
2026-05-07 00:40 42.30502 -85.30973 32163 ft 579 kts 94°
2026-05-07 00:40 42.30408 -85.25534 32492 ft 579 kts 94°
2026-05-07 00:41 42.30313 -85.20091 32799 ft 580 kts 95°
2026-05-07 00:41 42.30214 -85.14648 33101 ft 580 kts 95°
2026-05-07 00:41 42.30113 -85.09190 33395 ft 580 kts 95°
2026-05-07 00:41 42.30008 -85.03737 33775 ft 579 kts 95°
2026-05-07 00:42 42.29896 -84.98376 34108 ft 578 kts 95°
2026-05-07 00:42 42.29771 -84.92945 34364 ft 578 kts 95°
2026-05-07 00:42 42.29639 -84.87521 34635 ft 577 kts 96°
2026-05-07 00:42 42.29503 -84.82111 34926 ft 575 kts 96°
2026-05-07 00:43 42.29366 -84.76714 35200 ft 574 kts 96°
2026-05-07 00:43 42.29226 -84.71330 35484 ft 573 kts 96°
2026-05-07 00:43 42.29086 -84.65951 35701 ft 573 kts 96°
2026-05-07 00:43 42.28943 -84.60572 35836 ft 575 kts 96°
2026-05-07 00:44 42.28797 -84.55164 36016 ft 576 kts 96°
2026-05-07 00:44 42.28710 -84.49762 36267 ft 577 kts 90°
2026-05-07 00:44 42.29137 -84.44369 36518 ft 578 kts 83°
2026-05-07 00:44 42.29767 -84.39014 36777 ft 577 kts 81°
2026-05-07 00:45 42.30476 -84.33682 36958 ft 577 kts 80°
2026-05-07 00:45 42.31231 -84.28359 36965 ft 577 kts 79°
2026-05-07 00:45 42.32778 -84.17731 36988 ft 577 kts 79°
2026-05-07 00:46 42.34303 -84.07086 36988 ft 577 kts 80°
2026-05-07 00:46 42.35794 -83.96443 36983 ft 577 kts 80°
2026-05-07 00:47 42.37268 -83.85776 36980 ft 577 kts 80°
2026-05-07 00:47 42.38733 -83.75090 36980 ft 578 kts 80°
2026-05-07 00:48 42.40243 -83.64410 36976 ft 578 kts 74°
2026-05-07 00:48 42.41597 -83.59313 36974 ft 574 kts 61°
2026-05-07 00:48 42.43586 -83.54661 37035 ft 569 kts 53°
2026-05-07 00:49 42.48086 -83.45896 36977 ft 565 kts 49°
2026-05-07 00:49 42.52785 -83.37387 36974 ft 564 kts 48°
2026-05-07 00:50 42.57491 -83.28876 36976 ft 564 kts 48°
2026-05-07 00:50 42.62161 -83.20310 36982 ft 564 kts 49°
2026-05-07 00:51 42.66777 -83.11769 36972 ft 565 kts 49°
2026-05-07 00:51 42.71422 -83.03140 36957 ft 566 kts 49°
2026-05-07 00:52 42.76070 -82.94482 36956 ft 566 kts 49°
2026-05-07 00:52 42.80713 -82.85811 37000 ft 566 kts 49°
2026-05-07 00:53 42.85238 -82.77333 36945 ft 562 kts 49°
2026-05-07 00:53 42.89832 -82.68706 36990 ft 563 kts 49°
2026-05-07 00:54 42.94413 -82.60083 36989 ft 563 kts 49°
2026-05-07 00:54 42.99001 -82.51416 37021 ft 563 kts 50°
2026-05-07 00:55 43.03576 -82.42747 36980 ft 561 kts 50°
2026-05-07 00:55 43.08132 -82.34091 36977 ft 561 kts 50°
2026-05-07 00:56 43.12213 -82.26319 36982 ft 563 kts 50°
2026-05-07 00:56 43.16544 -82.18044 37040 ft 562 kts 50°
2026-05-07 00:57 43.21077 -82.09358 36988 ft 559 kts 50°
2026-05-07 00:57 43.25559 -82.00744 36998 ft 558 kts 50°
2026-05-07 00:58 43.30060 -81.92072 36996 ft 558 kts 50°
2026-05-07 00:58 43.34554 -81.83388 37032 ft 558 kts 51°
2026-05-07 00:59 43.41274 -81.70350 36999 ft 556 kts 51°
2026-05-07 01:00 43.45736 -81.61662 36991 ft 557 kts 51°
2026-05-07 01:00 43.50208 -81.52931 36998 ft 558 kts 51°
2026-05-07 01:01 43.54678 -81.44177 37001 ft 557 kts 51°
2026-05-07 01:01 43.59115 -81.35456 36986 ft 555 kts 51°
2026-05-07 01:02 43.63541 -81.26738 36971 ft 554 kts 51°
2026-05-07 01:02 43.67964 -81.17999 36978 ft 556 kts 51°
2026-05-07 01:03 43.72357 -81.09293 36992 ft 555 kts 52°
2026-05-07 01:03 43.76047 -81.01957 36988 ft 554 kts 52°
2026-05-07 01:04 43.81152 -80.91781 36987 ft 554 kts 52°
2026-05-07 01:04 43.85540 -80.83006 36978 ft 555 kts 52°
2026-05-07 01:05 43.89925 -80.74210 36976 ft 552 kts 52°
2026-05-07 01:05 43.93571 -80.66873 36977 ft 551 kts 52°
2026-05-07 01:06 43.97912 -80.58119 36979 ft 551 kts 52°
2026-05-07 01:06 44.02248 -80.49349 36980 ft 551 kts 52°
2026-05-07 01:07 44.06548 -80.40624 36976 ft 549 kts 52°
2026-05-07 01:07 44.10852 -80.31862 36977 ft 548 kts 52°
2026-05-07 01:08 44.15151 -80.23086 36979 ft 548 kts 52°
2026-05-07 01:08 44.19441 -80.14304 37015 ft 548 kts 53°
2026-05-07 01:09 44.23720 -80.05516 36982 ft 547 kts 53°
2026-05-07 01:09 44.27983 -79.96732 36979 ft 546 kts 53°
2026-05-07 01:10 44.32236 -79.87945 36983 ft 546 kts 53°
2026-05-07 01:10 44.36484 -79.79139 36949 ft 547 kts 53°
2026-05-07 01:11 44.40728 -79.70318 36972 ft 547 kts 53°
2026-05-07 01:11 44.44971 -79.61470 36989 ft 547 kts 53°
2026-05-07 01:12 44.49206 -79.52613 36972 ft 547 kts 53°
2026-05-07 01:12 44.53432 -79.43747 36980 ft 547 kts 53°
2026-05-07 01:13 44.57617 -79.34939 36967 ft 546 kts 53°
2026-05-07 01:13 44.61821 -79.26062 36967 ft 546 kts 53°
2026-05-07 01:14 44.66024 -79.17164 36962 ft 546 kts 53°
2026-05-07 01:14 44.70216 -79.08261 36966 ft 546 kts 54°
2026-05-07 01:15 44.74393 -78.99358 36956 ft 545 kts 54°
2026-05-07 01:15 44.78561 -78.90452 36951 ft 545 kts 54°
2026-05-07 01:16 44.82724 -78.81526 36950 ft 545 kts 54°
2026-05-07 01:16 44.86879 -78.72591 36942 ft 545 kts 54°
2026-05-07 01:17 44.91025 -78.63647 36934 ft 545 kts 54°
2026-05-07 01:17 44.95168 -78.54682 36933 ft 545 kts 54°
2026-05-07 01:18 44.99300 -78.45711 36910 ft 545 kts 54°
2026-05-07 01:18 45.03421 -78.36735 36922 ft 544 kts 54°
2026-05-07 01:19 45.07503 -78.27817 36918 ft 543 kts 54°
2026-05-07 01:19 45.11621 -78.18849 36917 ft 542 kts 51°
2026-05-07 01:20 45.16523 -78.10838 37019 ft 538 kts 43°